Hourly Data Report for April 11, 2004

TORONTO CITY
ONTARIO

43°40'00.000" N
79°24'00.000" W
112.50 m
6158355
71508
XTO

Download Data

Hourly Data (April 2004)
Hourly Data Report for April 11, 2004
TIME
LST
Temp Definition
°C
Dew Point Definition
°C
Rel Hum Definition
%
Precip. Amount Definition
mm

Wind Dir Definition
10's deg

Wind Spd Definition
km/h
Visibility Definition
km
Stn Press Definition
kPa
Hmdx Definition


Wind Chill Definition


Weather Definition


00:00 0.5 -5.8 63   LegendMM LegendMM LegendMM 100.66     LegendNANA
01:00 0.2 -5.1 67   LegendMM LegendMM LegendMM 100.68     LegendNANA
02:00 0.0 -4.9 70   LegendMM LegendMM LegendMM 100.64     LegendNANA
03:00 -0.2 -5.5 67   LegendMM LegendMM LegendMM 100.66     LegendNANA
04:00 0.1 -5.8 64   LegendMM LegendMM LegendMM 100.71     LegendNANA
05:00 0.2 -6.1 63   LegendMM LegendMM LegendMM 100.77     LegendNANA
06:00 0.3 -5.8 64   LegendMM LegendMM LegendMM 100.80     LegendNANA
07:00 1.0 -6.2 59   LegendMM LegendMM LegendMM 100.84     LegendNANA
08:00 2.5 -7.0 49   LegendMM LegendMM LegendMM 100.88     LegendNANA
09:00 4.2 -6.2 47   LegendMM LegendMM LegendMM 100.90     LegendNANA
10:00 3.9 -5.9 49   LegendMM LegendMM LegendMM 100.89     LegendNANA
11:00 4.5 -5.4 49   LegendMM LegendMM LegendMM 100.90     LegendNANA
12:00 4.9 -7.0 42   LegendMM LegendMM LegendMM 100.87     LegendNANA
13:00 4.4 -6.3 46   LegendMM LegendMM LegendMM 100.84     LegendNANA
14:00 5.9 -4.6 47   LegendMM LegendMM LegendMM 100.82     LegendNANA
15:00 6.0 -5.4 44   LegendMM LegendMM LegendMM 100.80     LegendNANA
16:00 5.3 -5.8 45   LegendMM LegendMM LegendMM 100.82     LegendNANA
17:00 5.3 -7.0 41   LegendMM LegendMM LegendMM 100.81     LegendNANA
18:00 4.7 -6.6 44   LegendMM LegendMM LegendMM 100.86     LegendNANA
19:00 4.4 -6.9 44   LegendMM LegendMM LegendMM 100.90     LegendNANA
20:00 4.3 -7.3 43   LegendMM LegendMM LegendMM 100.96     LegendNANA
21:00 4.4 -7.2 43   LegendMM LegendMM LegendMM 100.96     LegendNANA
22:00 4.4 -7.5 42   LegendMM LegendMM LegendMM 100.97     LegendNANA
23:00 4.5 -6.8 44   LegendMM LegendMM LegendMM 100.98     LegendNANA

Notes on Data Quality.

Legend

  • E = Estimated
  • M = Missing
  • NA = Not Available*
  • [empty] = Indicates an unobserved value
Date modified: